N8QQ Weather Reports


Display with metric or nautical units.
time (UTC)temp
F
wind
direction
speed
MPH
gust
MPH
rain 1hr
in
rain 24hr
in
rain mn
in
humidity
%
barometer
mb
20260506145023 51 86 2.0 4.0 0.00 0.88 0.38 77 1007.9
20260506144019 51 82 3.0 5.0 0.00 0.88 0.38 80 1007.3
20260506143017 51 97 2.0 5.0 0.00 0.88 0.38 81 1007.3
20260506142032 49 98 3.0 7.0 0.00 0.88 0.38 83 1007.5
20260506141017 50 172 2.0 6.0 0.00 0.88 0.38 86 1007.5
20260506140020 50 123 2.0 4.0 0.00 0.88 0.38 84 1007.4
20260506135023 49 187 2.0 4.0 0.00 0.88 0.38 89 1007.2
20260506134046 49 138 3.0 4.0 0.00 0.88 0.38 87 1007.2
20260506133029 48 159 3.0 7.0 0.00 0.88 0.38 90 1007.2
20260506132032 47 284 2.0 4.0 0.00 0.88 0.38 93 1006.8
20260506131038 47 235 1.0 3.0 0.00 0.88 0.38 93 1006.8
20260506130020 47 93 1.0 4.0 0.00 0.88 0.38 94 1006.9
20260506125124 46 136 1.0 3.0 0.00 0.88 0.38 94 1006.8
20260506124026 46 184 1.0 3.0 0.00 0.88 0.38 95 1006.7
20260506123049 46 100 1.0 3.0 0.00 0.88 0.38 97 1006.8
20260506122032 46 11 2.0 5.0 0.00 0.88 0.38 97 1006.5
20260506121037 45 274 1.0 3.0 0.00 0.88 0.38 98 1006.2
20260506120020 45 72 1.0 3.0 0.00 0.88 0.38 99 1005.9
20260506115024 45 108 1.0 3.0 0.00 0.88 0.38 99 1005.8
20260506114027 44 0.0 0.0 0.00 0.88 0.38 99 1005.6
20260506113024 44 0.0 0.0 0.00 0.88 0.38 99 1005.4
20260506112015 43 139 2.0 4.0 0.00 0.89 0.38 99 1005.1
20260506111040 43 112 2.0 4.0 0.00 0.89 0.38 99 1005.1
20260506110015 43 292 1.0 3.0 0.00 0.89 0.38 99 1005.0
20260506105025 43 242 1.0 3.0 0.00 0.89 0.38 99 1004.6
20260506104049 43 298 1.0 3.0 0.00 0.90 0.38 99 1004.6
20260506103052 43 30 1.0 3.0 0.00 0.90 0.38 99 1005.0
20260506102036 43 221 1.0 2.0 0.00 0.90 0.38 99 1004.5
20260506101019 43 223 0.0 4.0 0.00 0.92 0.38 99 1004.2
20260506100023 43 243 2.0 4.0 0.00 0.96 0.38 99 1004.0
20260506095026 43 110 2.0 3.0 0.00 0.98 0.38 99 1004.0
20260506094029 43 76 0.0 2.0 0.00 0.99 0.38 99 1004.1
20260506093032 43 346 2.0 4.0 0.00 1.00 0.38 99 1004.2
20260506092018 0 90 2.0 2.0 0.00 1.00 0.38 1003.7
20260506091020 43 114 2.0 4.0 0.01 1.00 0.38 99 1003.5
20260506090024 43 81 2.0 5.0 0.01 1.00 0.38 99 1003.5
20260506085026 43 39 2.0 5.0 0.02 1.00 0.38 99 1003.5
20260506084029 43 70 2.0 4.0 0.02 1.00 0.38 99 1003.5
20260506083032 44 157 2.0 6.0 0.03 1.00 0.38 99 1003.3
20260506082017 44 88 3.0 6.0 0.05 1.00 0.38 99 1003.2
20260506081041 44 76 3.0 5.0 0.04 0.99 0.36 99 1003.2
20260506073016 46 225 5.0 6.0 0.08 0.97 0.35 99 1003.3
20260506072019 47 94 2.0 4.0 0.06 0.95 0.33 99 1003.2
20260506071042 47 3 3.0 6.0 0.06 0.94 0.32 99 1003.1
20260506062019 47 75 2.0 6.0 0.09 0.89 0.27 99 1002.3
20260506061023 48 54 3.0 6.0 0.10 0.88 0.26 99 1002.3
20260506051044 51 117 2.0 5.0 0.13 0.78 0.15 99 1002.2
20260506045030 52 169 1.0 3.0 0.09 0.71 0.09 99 1001.8
20260506044036 53 265 3.0 4.0 0.10 0.70 0.08 99 1001.8
20260506043019 56 278 1.0 4.0 0.09 0.68 0.06 99 1001.7
20260506042022 58 0.0 0.0 0.09 0.68 0.06 99 1001.7
20260506041019 58 0.0 0.0 0.06 0.64 0.02 99 1001.5
20260506040017 58 0.0 0.0 0.03 0.62 0.00 99 1001.4
20260506035031 58 0.0 0.0 0.03 0.62 0.62 99 1001.5
20260506034016 58 0.0 0.0 0.03 0.60 0.60 99 1001.6
20260506033020 58 4 0.0 2.0 0.02 0.58 0.58 99 1001.7
20260506032022 58 0.0 0.0 0.02 0.58 0.58 99 1001.7
20260506031025 58 0.0 0.0 0.02 0.58 0.58 99 1001.9
20260506030029 58 0.0 0.0 0.02 0.58 0.58 99 1002.2
20260506025032 58 0.0 0.0 0.04 0.58 0.58 99 1002.0
20260506024017 58 0.0 0.0 0.04 0.57 0.57 99 1002.6
20260506023020 58 0.0 0.0 0.03 0.56 0.56 99 1002.7
20260506022023 58 0.0 0.0 0.03 0.56 0.56 99 1002.8
20260506021026 59 0.0 0.0 0.06 0.56 0.56 99 1002.7
20260506020031 59 0.0 0.0 0.08 0.56 0.56 99 1002.6
20260506015032 59 0.0 0.0 0.09 0.54 0.54 99 1002.8
20260506014018 59 0.0 0.0 0.10 0.52 0.52 99 1002.5
20260506013020 59 0.0 0.0 0.11 0.52 0.52 99 1002.4
20260506012044 59 0.0 0.0 0.11 0.52 0.52 99 1002.3
20260506011028 59 0.0 0.0 0.09 0.50 0.50 99 1002.4
20260506010025 59 0.0 0.0 0.07 0.48 0.48 99 1002.6
20260506005016 59 292 0.0 2.0 0.04 0.45 0.45 99 1002.4
20260506004039 59 0.0 0.0 0.01 0.42 0.42 99 1002.2
20260506003101 59 0.0 0.0 0.00 0.41 0.41 99 1001.9
20260506002024 59 0.0 0.0 0.02 0.41 0.41 99 1001.9
20260506001029 59 0.0 0.0 0.03 0.41 0.41 99 1001.9
20260506000031 60 0.0 0.0 0.02 0.40 0.40 99 1001.8
20260505235016 60 0.0 0.0 0.02 0.40 0.40 99 1001.9
20260505234019 60 0.0 0.0 0.02 0.40 0.40 99 1001.9
20260505233022 60 0.0 1.0 0.02 0.40 0.40 99 1002.4
20260505232026 61 0.0 1.0 0.00 0.39 0.39 99 1002.3
20260505231029 61 57 0.0 3.0 0.00 0.38 0.38 99 1002.3
20260505230057 61 130 0.0 2.0 0.00 0.38 0.38 99 1002.3
20260505225017 61 90 0.0 2.0 0.00 0.38 0.38 99 1002.6
20260505224020 61 0.0 0.0 0.00 0.38 0.38 99 1002.7
20260505223043 61 112 0.0 2.0 0.00 0.38 0.38 99 1002.8
20260505222026 61 28 0.0 2.0 0.00 0.38 0.38 99 1003.0
20260505221029 61 243 0.0 3.0 0.00 0.38 0.38 99 1003.1
20260505220032 61 0.0 0.0 0.02 0.38 0.38 99 1003.2
20260505215017 61 78 0.0 3.0 0.02 0.38 0.38 99 1003.3
20260505214021 61 37 1.0 2.0 0.02 0.38 0.38 99 1003.3
20260505213104 61 0.0 0.0 0.03 0.38 0.38 99 1003.2
20260505212020 61 137 0.0 2.0 0.06 0.38 0.38 99 1003.3
20260505211018 61 157 0.0 2.0 0.06 0.37 0.37 99 1003.3
20260505210053 61 135 0.0 2.0 0.06 0.36 0.36 99 1003.3
20260505205017 61 0.0 0.0 0.06 0.36 0.36 99 1003.3
20260505204020 61 178 1.0 3.0 0.07 0.36 0.36 99 1003.4
20260505203023 62 207 2.0 5.0 0.09 0.34 0.34 99 1003.5
20260505202026 62 204 0.0 3.0 0.12 0.32 0.32 97 1003.5
20260505201030 62 189 1.0 4.0 0.19 0.31 0.31 97 1003.6
20260505200015 62 180 0.0 1.0 0.18 0.30 0.30 97 1003.7
20260505195018 62 166 1.0 4.0 0.18 0.30 0.30 96 1003.8
20260505194021 62 0.0 0.0 0.16 0.28 0.28 95 1004.1
20260505193025 62 163 1.0 3.0 0.13 0.25 0.25 94 1004.1
20260505192029 63 175 6.0 10.0 0.07 0.19 0.19 89 1003.7
20260505191031 67 205 3.0 5.0 0.00 0.12 0.12 79 1003.6
20260505190017 68 181 1.0 3.0 0.00 0.12 0.12 75 1003.5
20260505185019 68 178 1.0 4.0 0.00 0.12 0.12 75 1003.5
20260505184023 68 196 1.0 4.0 0.00 0.12 0.12 75 1003.7
20260505183026 68 148 2.0 5.0 0.00 0.12 0.12 75 1003.7
20260505182029 68 134 1.0 5.0 0.00 0.12 0.12 74 1004.0
20260505181026 68 11 1.0 4.0 0.00 0.12 0.12 74 1004.1
20260505180017 68 147 2.0 5.0 0.00 0.12 0.12 73 1004.3
20260505175021 68 68 0.0 3.0 0.00 0.12 0.12 74 1004.1
20260505174018 68 112 0.0 2.0 0.00 0.12 0.12 74 1004.1
20260505173015 67 96 1.0 3.0 0.00 0.12 0.12 74 1004.3
20260505172050 67 179 2.0 5.0 0.00 0.12 0.12 74 1004.4
20260505171015 66 194 1.0 3.0 0.00 0.12 0.12 74 1004.3
20260505170019 66 148 2.0 4.0 0.00 0.12 0.12 74 1004.3
20260505165041 66 126 1.0 3.0 0.00 0.12 0.12 76 1004.4
20260505164025 66 112 0.0 1.0 0.00 0.12 0.12 77 1004.3
20260505163048 66 196 1.0 5.0 0.00 0.12 0.12 76 1004.5
20260505162051 66 114 1.0 2.0 0.00 0.12 0.12 76 1004.4
20260505161037 66 95 2.0 5.0 0.00 0.12 0.12 76 1004.4
20260505153028 66 60 1.0 4.0 0.00 0.12 0.12 79 1004.1
20260505152032 66 153 1.0 4.0 0.00 0.12 0.12 79 1004.1
20260505151015 67 138 1.0 3.0 0.00 0.12 0.12 80 1004.2